Weather History for KMIC - May, 2014

Change the Weather History Date:

Tuesday, May 13, 2014

  Actual Average Record
Temperature  
Mean Temperature 49 °F -  
Max Temperature 54 °F 66 °F 90 °F (2007)
Min Temperature 44 °F 44 °F 33 °F (2013)
Degree Days  
Heating Degree Days 16    
Moisture  
Dew Point 38 °F    
Average Humidity 67    
Maximum Humidity 89    
Minimum Humidity 48    
Precipitation  
Precipitation 0.00 in - - ()
Sea Level Pressure  
Sea Level Pressure 30.01 in    
Wind  
Wind Speed 13 mph (WNW)    
Max Wind Speed 20 mph    
Max Gust Speed 28 mph    
Visibility 10 miles    
Events      
Averages and records for this station are not official NWS values.
T = Trace of Precipitation, MM = Missing Value Source: NWS Daily Summary

Daily Weather History Graph

Daily Weather History Graph

Search for Another Location

Airport or City:

Trip Planner

Search our weather history database for the weather conditions in past years. The results will help you decide how hot, cold, wet, or windy it might be!

Date:

Astronomy

May. 13, 2014 Rise Set
Actual Time 5:46 AM CDT 8:33 PM CDT
Civil Twilight 5:12 AM CDT 9:07 PM CDT
Nautical Twilight 4:29 AM CDT 9:51 PM CDT
Astronomical Twilight 3:39 AM CDT 10:41 PM CDT
Moon 7:32 PM CDT (5/13) 5:07 AM CDT (5/13)
Length of Visible Light 15h 55m
Length of Day
14h 47m
Waxing Gibbous, 99% of the Moon is Illuminated
May 13
Waxing Gibbous
May 14
Full
May 21
Last Quarter
May 28
New
Jun 5
First Quarter

Hourly Weather History & Observations

Time (CDT) Temp. Windchill Dew Point Humidity Pressure Visibility Wind Dir Wind Speed Gust Speed Precip Events Conditions
1:53 AM 48.0 °F - 45.0 °F 89% 29.82 in 9.0 mi West 11.5 mph - N/A   Overcast
2:53 AM 46.9 °F - 42.1 °F 83% 29.85 in 10.0 mi WNW 11.5 mph - 0.00 in   Overcast
3:44 AM 46.9 °F - 41.0 °F 80% 29.85 in 10.0 mi WNW 9.2 mph - N/A   Overcast
3:53 AM 46.9 °F - 41.0 °F 80% 29.87 in 10.0 mi West 9.2 mph 19.6 mph N/A   Overcast
4:10 AM 46.9 °F - 41.0 °F 80% 29.86 in 10.0 mi WNW 13.8 mph - N/A   Overcast
4:22 AM 46.9 °F - 39.9 °F 77% 29.87 in 10.0 mi WNW 15.0 mph - N/A   Overcast
4:35 AM 46.9 °F - 39.9 °F 77% 29.87 in 10.0 mi West 12.7 mph - N/A   Overcast
4:53 AM 46.9 °F - 39.9 °F 77% 29.88 in 10.0 mi West 13.8 mph - N/A   Overcast
5:53 AM 46.0 °F 40.2 °F 37.9 °F 73% 29.90 in 10.0 mi WNW 12.7 mph 20.7 mph N/A   Mostly Cloudy
6:53 AM 46.9 °F - 39.0 °F 74% 29.94 in 10.0 mi WNW 12.7 mph 20.7 mph N/A   Overcast
7:01 AM 46.9 °F - 39.0 °F 74% 29.93 in 10.0 mi WNW 12.7 mph 23.0 mph N/A   Overcast
8:53 AM 46.9 °F - 37.0 °F 68% 29.98 in 10.0 mi WNW 13.8 mph - N/A   Overcast
9:53 AM 46.9 °F - 37.0 °F 68% 30.01 in 10.0 mi WNW 12.7 mph - N/A   Overcast
11:30 AM 48.9 °F - 37.0 °F 64% 30.03 in 10.0 mi NW 16.1 mph 24.2 mph N/A   Overcast
11:53 AM 50.0 °F - 36.0 °F 59% 30.05 in 10.0 mi WNW 17.3 mph 24.2 mph N/A   Overcast
12:53 PM 51.1 °F - 37.0 °F 59% 30.06 in 10.0 mi WNW 18.4 mph 25.3 mph N/A   Overcast
1:53 PM 51.1 °F - 37.9 °F 61% 30.09 in 10.0 mi WNW 15.0 mph 23.0 mph N/A   Overcast
2:01 PM 50.0 °F - 37.9 °F 63% 30.08 in 10.0 mi WNW 13.8 mph - N/A   Overcast
2:53 PM 52.0 °F - 37.9 °F 59% 30.10 in 10.0 mi West 11.5 mph 21.9 mph N/A   Overcast
3:53 PM 51.1 °F - 36.0 °F 56% 30.10 in 10.0 mi WNW 16.1 mph 20.7 mph N/A   Overcast
4:53 PM 52.0 °F - 36.0 °F 54% 30.11 in 10.0 mi WNW 17.3 mph 21.9 mph N/A   Overcast
5:53 PM 53.1 °F - 35.1 °F 50% 30.11 in 10.0 mi WNW 18.4 mph - N/A   Mostly Cloudy
6:53 PM 53.1 °F - 35.1 °F 50% 30.12 in 10.0 mi West 19.6 mph 27.6 mph N/A   Mostly Cloudy
7:53 PM 51.1 °F - 32.0 °F 48% 30.14 in 10.0 mi NW 13.8 mph 21.9 mph N/A   Scattered Clouds
8:53 PM 51.1 °F - 35.1 °F 54% 30.15 in 10.0 mi WNW 10.4 mph 18.4 mph N/A   Mostly Cloudy
9:53 PM 48.0 °F - 33.1 °F 56% 30.18 in 10.0 mi West 6.9 mph - N/A   Clear
10:53 PM 45.0 °F 42.6 °F 34.0 °F 65% 30.19 in 10.0 mi West 4.6 mph - N/A   Clear
11:53 PM 44.1 °F 40.8 °F 34.0 °F 68% 30.19 in 10.0 mi West 5.8 mph - N/A   Clear